Photometre #857[NE_1.6_Dp] Cork_UCC AOT

File : 20220924_857.hum

24/09/2022,07:20:50,TEMP=9.9,BA=5.36,STAT.A,ExtBa=12.80
24/09/2022,07:25:02,TEMP=10.2,BA=5.36,STAT.A,ExtBa=12.70
24/09/2022,07:29:58,TEMP=10.3,BA=5.36,STAT.A,ExtBa=12.70
24/09/2022,07:35:52,TEMP=10.4,BA=5.28,STAT.A,ExtBa=12.70
24/09/2022,07:42:58,TEMP=10.5,BA=5.40,STAT.A,ExtBa=12.70
24/09/2022,07:51:45,TEMP=10.6,BA=5.44,STAT.A,ExtBa=12.70
24/09/2022,08:02:56,TEMP=10.8,BA=5.48,STAT.B,ExtBa=12.70
24/09/2022,08:08:19,TEMP=11.1,BA=5.48,STAT.A,ExtBa=12.70
24/09/2022,08:14:21,TEMP=11.3,BA=5.32,STAT.A,ExtBa=12.70
24/09/2022,08:21:13,TEMP=11.8,BA=5.56,STAT.A,ExtBa=12.80
24/09/2022,08:29:04,TEMP=12.5,BA=5.56,STAT.A,ExtBa=12.90
24/09/2022,08:38:09,TEMP=13.4,BA=5.40,STAT.C,ExtBa=13.00
24/09/2022,09:03:07,TEMP=16.1,BA=5.44,STAT.A,ExtBa=12.60
24/09/2022,09:07:02,TEMP=15.7,BA=5.44,STAT.A,ExtBa=12.90
24/09/2022,09:17:20,TEMP=16.2,BA=5.56,STAT.A,ExtBa=13.30
24/09/2022,09:26:45,TEMP=16.3,BA=5.56,STAT.F,ExtBa=13.20
24/09/2022,09:52:30,TEMP=17.8,BA=5.40,STAT.D,ExtBa=12.60
24/09/2022,09:56:44,TEMP=17.2,BA=5.40,STAT.D,ExtBa=12.80
24/09/2022,10:11:44,TEMP=16.4,BA=5.56,STAT.D,ExtBa=13.10
24/09/2022,10:26:46,TEMP=16.6,BA=5.56,STAT.F,ExtBa=13.30
24/09/2022,10:41:44,TEMP=16.9,BA=5.56,STAT.D,ExtBa=13.70
24/09/2022,10:56:44,TEMP=18.2,BA=5.56,STAT.D,ExtBa=13.80
24/09/2022,11:11:44,TEMP=17.9,BA=5.56,STAT.D,ExtBa=13.30
24/09/2022,11:26:46,TEMP=17.3,BA=5.56,STAT.F,ExtBa=13.20
24/09/2022,11:41:44,TEMP=17.1,BA=5.56,STAT.D,ExtBa=13.50
24/09/2022,11:56:44,TEMP=16.9,BA=5.56,STAT.D,ExtBa=13.40
24/09/2022,12:11:44,TEMP=17.2,BA=5.56,STAT.D,ExtBa=13.60
24/09/2022,12:26:46,TEMP=18.3,BA=5.56,STAT.F,ExtBa=13.80
24/09/2022,12:41:44,TEMP=19.2,BA=5.56,STAT.D,ExtBa=13.70
24/09/2022,12:56:44,TEMP=19.8,BA=5.56,STAT.D,ExtBa=14.00
24/09/2022,13:11:44,TEMP=20.1,BA=5.56,STAT.D,ExtBa=14.10
24/09/2022,13:26:46,TEMP=19.3,BA=5.52,STAT.F,ExtBa=13.60
24/09/2022,13:41:44,TEMP=19.6,BA=5.56,STAT.D,ExtBa=14.50
24/09/2022,13:56:44,TEMP=20.6,BA=5.56,STAT.D,ExtBa=13.80
24/09/2022,14:11:44,TEMP=20.8,BA=5.52,STAT.D,ExtBa=14.30
24/09/2022,14:26:46,TEMP=20.1,BA=5.48,STAT.F,ExtBa=13.60
24/09/2022,14:41:44,TEMP=18.3,BA=5.48,STAT.D,ExtBa=13.20
24/09/2022,14:56:44,TEMP=18.2,BA=5.52,STAT.D,ExtBa=14.10
24/09/2022,15:11:44,TEMP=19.1,BA=5.52,STAT.D,ExtBa=13.80
24/09/2022,15:26:45,TEMP=18.5,BA=5.52,STAT.F,ExtBa=13.80
24/09/2022,15:52:26,TEMP=20.8,BA=5.44,STAT.A,ExtBa=12.90
24/09/2022,15:56:31,TEMP=20.1,BA=5.44,STAT.A,ExtBa=13.10
24/09/2022,16:04:39,TEMP=19.9,BA=5.48,STAT.A,ExtBa=13.20
24/09/2022,16:15:21,TEMP=18.7,BA=5.44,STAT.C,ExtBa=13.00
24/09/2022,16:38:56,TEMP=19.0,BA=5.40,STAT.A,ExtBa=12.80
24/09/2022,16:42:52,TEMP=18.2,BA=5.40,STAT.A,ExtBa=12.80
24/09/2022,16:46:49,TEMP=17.9,BA=5.40,STAT.A,ExtBa=12.80
24/09/2022,16:53:21,TEMP=17.2,BA=5.36,STAT.A,ExtBa=12.90
24/09/2022,16:55:38,TEMP=17.3,BA=5.36,STAT.B,ExtBa=12.80
24/09/2022,17:04:04,TEMP=17.3,BA=5.36,STAT.A,ExtBa=12.70
24/09/2022,17:10:31,TEMP=16.8,BA=5.44,STAT.A,ExtBa=13.00
24/09/2022,17:17:37,TEMP=17.3,BA=5.44,STAT.A,ExtBa=13.10
24/09/2022,17:23:30,TEMP=17.7,BA=5.48,STAT.A,ExtBa=13.10
24/09/2022,17:28:26,TEMP=17.9,BA=5.48,STAT.A,ExtBa=12.90
24/09/2022,17:32:38,TEMP=18.1,BA=5.44,STAT.A,ExtBa=12.90